QTR75C OTHH-LGAV

Flight info

Callsign QTR75C
Flight time N/A
Altitude 29000
Route DATRI L564 MIGMA/N0517F280 M628 AMBAG/N0488F400 M321 KSA T503 OVANO L768 FIRAS R655 KTN R785 NIKAS M978 LCA M601 VADUS DCT EVENO UM601 RDS UL995 VARIX
Aircraft A359/H-SDE2E3GHIJ1J3J4J5LM1ORWXY/LB1D1

Departure

Time 2026-05-07 14:35
Airport Hamad International Airport (OTHH)

Arrival

Time N/A
Airport Athens Eleftherios Venizelos International Airport (LGAV)
Time Latitude Longitude Altitude Speed Heading
2026-05-07 14:00 25.27021 51.61353 36 ft 0 kts 300°
2026-05-07 14:19 25.27021 51.61354 36 ft 0 kts 300°
2026-05-07 14:23 25.27020 51.61354 36 ft 0 kts 300°
2026-05-07 14:23 25.27010 51.61374 35 ft 4 kts 300°
2026-05-07 14:23 25.26996 51.61400 33 ft 4 kts 300°
2026-05-07 14:23 25.26981 51.61423 32 ft 4 kts 328°
2026-05-07 14:24 25.26958 51.61430 33 ft 4 kts 14°
2026-05-07 14:24 25.26942 51.61423 33 ft 0 kts 23°
2026-05-07 14:24 25.26937 51.61421 33 ft 1 kts 23°
2026-05-07 14:29 25.26938 51.61422 33 ft 1 kts 23°
2026-05-07 14:29 25.26966 51.61435 33 ft 8 kts 23°
2026-05-07 14:29 25.27001 51.61470 36 ft 7 kts 55°
2026-05-07 14:29 25.27024 51.61526 36 ft 9 kts 66°
2026-05-07 14:30 25.27058 51.61618 36 ft 16 kts 70°
2026-05-07 14:30 25.27097 51.61737 35 ft 15 kts 81°
2026-05-07 14:30 25.27057 51.61806 33 ft 11 kts 141°
2026-05-07 14:30 25.26981 51.61843 34 ft 13 kts 158°
2026-05-07 14:31 25.26889 51.61885 34 ft 15 kts 158°
2026-05-07 14:31 25.26783 51.61930 34 ft 17 kts 159°
2026-05-07 14:31 25.26669 51.61980 34 ft 18 kts 158°
2026-05-07 14:31 25.26543 51.62035 34 ft 20 kts 158°
2026-05-07 14:32 25.26409 51.62095 35 ft 21 kts 158°
2026-05-07 14:32 25.26268 51.62156 35 ft 23 kts 158°
2026-05-07 14:32 25.26117 51.62223 36 ft 24 kts 158°
2026-05-07 14:32 25.25959 51.62292 36 ft 25 kts 159°
2026-05-07 14:33 25.25793 51.62365 35 ft 26 kts 158°
2026-05-07 14:33 25.25619 51.62442 34 ft 27 kts 158°
2026-05-07 14:33 25.25516 51.62514 34 ft 14 kts 106°
2026-05-07 14:33 25.25560 51.62612 33 ft 16 kts 40°
2026-05-07 14:34 25.25663 51.62625 33 ft 16 kts 341°
2026-05-07 14:34 25.25775 51.62576 32 ft 18 kts 338°
2026-05-07 14:34 25.25915 51.62516 33 ft 38 kts 338°
2026-05-07 14:34 25.26392 51.62306 33 ft 107 kts 338°
2026-05-07 14:35 25.27274 51.61917 33 ft 164 kts 338°
2026-05-07 14:35 25.28385 51.61415 627 ft 167 kts 338°
2026-05-07 14:35 25.29456 51.60915 1329 ft 166 kts 337°
2026-05-07 14:35 25.30488 51.60391 1994 ft 160 kts 336°
2026-05-07 14:36 25.31284 51.59579 2562 ft 155 kts 307°
2026-05-07 14:36 25.31620 51.58462 3002 ft 158 kts 277°
2026-05-07 14:36 25.31404 51.57255 3305 ft 169 kts 245°
2026-05-07 14:36 25.30649 51.56242 3616 ft 175 kts 214°
2026-05-07 14:37 25.29529 51.55731 3993 ft 177 kts 185°
2026-05-07 14:37 25.26833 51.55421 4467 ft 215 kts 181°
2026-05-07 14:37 25.25264 51.55286 4693 ft 238 kts 182°
2026-05-07 14:38 25.23540 51.55124 4972 ft 259 kts 183°
2026-05-07 14:38 25.21687 51.54940 5334 ft 275 kts 184°
2026-05-07 14:38 25.19756 51.54745 5926 ft 281 kts 184°
2026-05-07 14:38 25.17800 51.54545 6562 ft 284 kts 184°
2026-05-07 14:39 25.15816 51.54343 7217 ft 288 kts 184°
2026-05-07 14:39 25.13811 51.54142 7880 ft 291 kts 184°
2026-05-07 14:39 25.11781 51.53941 8569 ft 295 kts 184°
2026-05-07 14:39 25.09722 51.53739 9296 ft 298 kts 184°
2026-05-07 14:40 25.07649 51.53536 10003 ft 301 kts 184°
2026-05-07 14:40 25.05505 51.53328 10407 ft 318 kts 184°
2026-05-07 14:40 25.03238 51.53107 10696 ft 335 kts 184°
2026-05-07 14:40 25.00884 51.52879 10996 ft 351 kts 184°
2026-05-07 14:41 24.98423 51.52470 11272 ft 367 kts 194°
2026-05-07 14:41 24.96037 51.51360 11627 ft 378 kts 213°
2026-05-07 14:41 24.94130 51.49370 12172 ft 382 kts 235°
2026-05-07 14:41 24.93018 51.46720 12711 ft 385 kts 257°
2026-05-07 14:42 24.92639 51.43791 13296 ft 388 kts 268°
2026-05-07 14:42 24.92651 51.40812 13886 ft 389 kts 273°
2026-05-07 14:42 24.92828 51.37828 14415 ft 392 kts 275°
2026-05-07 14:42 24.93045 51.34819 14970 ft 395 kts 274°
2026-05-07 14:43 24.93238 51.31815 15478 ft 398 kts 274°
2026-05-07 14:43 24.93391 51.28760 16014 ft 401 kts 272°
2026-05-07 14:43 24.93509 51.25679 16557 ft 404 kts 271°
2026-05-07 14:43 24.93601 51.22563 17088 ft 407 kts 271°
2026-05-07 14:44 24.93678 51.19430 17633 ft 409 kts 271°
2026-05-07 14:44 24.93751 51.16284 18159 ft 413 kts 270°
2026-05-07 14:44 24.93823 51.13115 18638 ft 415 kts 270°
2026-05-07 14:44 24.93895 51.09931 19143 ft 417 kts 270°
2026-05-07 14:45 24.93969 51.06730 19670 ft 418 kts 270°
2026-05-07 14:45 24.94044 51.03513 20178 ft 421 kts 270°
2026-05-07 14:45 24.94120 51.00287 20698 ft 423 kts 270°
2026-05-07 14:45 24.94197 50.97034 21221 ft 425 kts 270°
2026-05-07 14:46 24.94272 50.93815 21732 ft 427 kts 270°
2026-05-07 14:46 24.94348 50.90530 22223 ft 430 kts 270°
2026-05-07 14:46 24.94424 50.87181 22734 ft 433 kts 270°
2026-05-07 14:46 24.94498 50.83915 23301 ft 433 kts 270°
2026-05-07 14:47 24.94573 50.80584 23786 ft 435 kts 270°
2026-05-07 14:47 24.94646 50.77256 24295 ft 435 kts 270°
2026-05-07 14:47 24.94720 50.73914 24798 ft 436 kts 270°
2026-05-07 14:47 24.94792 50.70560 25291 ft 437 kts 270°
2026-05-07 14:48 24.94864 50.67199 25797 ft 439 kts 269°
2026-05-07 14:48 24.94936 50.63831 26312 ft 440 kts 269°
2026-05-07 14:48 24.95007 50.60458 26832 ft 441 kts 269°
2026-05-07 14:48 24.95077 50.57074 27322 ft 443 kts 269°
2026-05-07 14:49 24.95146 50.53716 27794 ft 445 kts 269°
2026-05-07 14:49 24.95215 50.50297 28280 ft 446 kts 269°
2026-05-07 14:49 24.95283 50.46867 28755 ft 448 kts 269°
2026-05-07 14:49 24.95352 50.43406 29204 ft 450 kts 268°
2026-05-07 14:50 24.95420 50.39949 29636 ft 452 kts 268°
2026-05-07 14:50 24.95487 50.36476 30044 ft 454 kts 268°
2026-05-07 14:50 24.95554 50.32985 30385 ft 456 kts 268°
2026-05-07 14:50 24.95619 50.29540 30734 ft 457 kts 268°
2026-05-07 14:51 24.95685 50.26029 31078 ft 458 kts 268°
2026-05-07 14:51 24.95750 50.22507 31416 ft 459 kts 268°
2026-05-07 14:51 24.95815 50.18983 31738 ft 461 kts 268°
2026-05-07 14:51 24.95879 50.15447 32055 ft 461 kts 268°
2026-05-07 14:52 24.95942 50.11910 32442 ft 460 kts 268°
2026-05-07 14:52 24.96004 50.08396 32931 ft 457 kts 268°
2026-05-07 14:52 24.96066 50.04906 33424 ft 454 kts 268°
2026-05-07 14:52 24.96126 50.01441 33887 ft 451 kts 268°
2026-05-07 14:53 24.96184 49.97997 34259 ft 449 kts 268°
2026-05-07 14:53 24.96242 49.94556 34596 ft 447 kts 268°
2026-05-07 14:53 24.96297 49.91137 34923 ft 446 kts 268°
2026-05-07 14:53 24.96352 49.87716 35202 ft 446 kts 268°
2026-05-07 14:54 24.96406 49.84297 35482 ft 446 kts 268°
2026-05-07 14:54 24.96459 49.80888 35769 ft 445 kts 268°
2026-05-07 14:54 24.96511 49.77483 36052 ft 444 kts 268°
2026-05-07 14:54 24.96563 49.74071 36325 ft 444 kts 268°
2026-05-07 14:55 24.96614 49.70676 36617 ft 443 kts 268°
2026-05-07 14:55 24.96664 49.67286 36891 ft 442 kts 268°
2026-05-07 14:55 24.96713 49.63898 37154 ft 441 kts 268°
2026-05-07 14:55 24.96761 49.60564 37421 ft 441 kts 268°
2026-05-07 14:56 24.96808 49.57185 37685 ft 440 kts 268°
2026-05-07 14:56 24.96855 49.53817 37939 ft 439 kts 268°
2026-05-07 14:56 24.96900 49.50453 38199 ft 438 kts 268°
2026-05-07 14:56 24.96945 49.47102 38472 ft 437 kts 268°
2026-05-07 14:57 24.96990 49.43758 38689 ft 436 kts 268°
2026-05-07 14:57 24.97033 49.40416 38855 ft 436 kts 268°
2026-05-07 14:57 24.97075 49.37072 39031 ft 436 kts 268°
2026-05-07 14:57 24.97116 49.33733 39198 ft 435 kts 268°
2026-05-07 14:58 24.97157 49.30393 39343 ft 436 kts 268°
2026-05-07 14:58 24.97197 49.27053 39500 ft 435 kts 268°
2026-05-07 14:58 24.97236 49.23717 39647 ft 435 kts 268°
2026-05-07 14:58 24.97275 49.20377 39788 ft 435 kts 268°
2026-05-07 14:59 24.97313 49.17045 39899 ft 436 kts 268°
2026-05-07 14:59 24.97350 49.13706 39914 ft 435 kts 268°